| Date | Time | Temp. (oF) | Dew Point (oF) | Rel. Hum. (%) | Press. (in.) | Wind Dir. | Wind Speed (mph) | Hourly Rainfall (in.) |
|
|---|---|---|---|---|---|---|---|---|---|
| 1 | 12/18 | 00:00 | 32 | 32 | 100 | 29.87 | WNW | 0 | 0.00 |
| 2 | 12/17 | 23:00 | 32 | 32 | 100 | 29.87 | WNW | 0 | 0.00 |
| 3 | 12/17 | 22:00 | 32 | 32 | 100 | 29.90 | WNW | 0 | 0.00 |
| 4 | 12/17 | 21:00 | 32 | 32 | 100 | 29.90 | WNW | 0 | 0.00 |
| 5 | 12/17 | 20:00 | 32 | 32 | 100 | 29.93 | WNW | 0 | 0.00 |
| 6 | 12/17 | 19:00 | 33 | 32 | 100 | 29.93 | WNW | 0 | 0.00 |
| 7 | 12/17 | 18:00 | 32 | 32 | 100 | 29.90 | WNW | 0 | 0.00 |
| 8 | 12/17 | 17:00 | 32 | 32 | 100 | 29.90 | WNW | 0 | 0.00 |
| 9 | 12/17 | 16:00 | 33 | 32 | 98 | 29.90 | WNW | 0 | 0.00 |
| 10 | 12/17 | 15:00 | 33 | 32 | 97 | 29.90 | WNW | 0 | 0.00 |
| 11 | 12/17 | 14:00 | 33 | 32 | 98 | 29.90 | WNW | 0 | 0.00 |
| 12 | 12/17 | 13:00 | 32 | 31 | 98 | 29.91 | WNW | 0 | 0.00 |
| 13 | 12/17 | 12:00 | 32 | 31 | 98 | 29.93 | WNW | 0 | 0.00 |
| 14 | 12/17 | 11:00 | 32 | 31 | 98 | 29.95 | WNW | 1 | 0.00 |
| 15 | 12/17 | 10:00 | 31 | 30 | 99 | 29.97 | WNW | 2 | 0.02 |
| 16 | 12/17 | 09:00 | 30 | 30 | 100 | 29.99 | WNW | 1 | 0.09 |
| 17 | 12/17 | 08:00 | 28 | 27 | 100 | 30.03 | WNW | 1 | 0.18 |
| 18 | 12/17 | 07:00 | 25 | 24 | 100 | 30.07 | WNW | 0 | 0.12 |
| 19 | 12/17 | 06:00 | 25 | 24 | 96 | 30.07 | WNW | 1 | 0.09 |
| 20 | 12/17 | 05:00 | 25 | 23 | 93 | 30.13 | WNW | 0 | 0.02 |
| 21 | 12/17 | 04:00 | 25 | 18 | 76 | 30.17 | WNW | 3 | 0.00 |
| 22 | 12/17 | 03:00 | 25 | 15 | 68 | 30.21 | WNW | 3 | 0.00 |
| 23 | 12/17 | 02:00 | 24 | 14 | 67 | 30.26 | WNW | 1 | 0.00 |
| 24 | 12/17 | 01:00 | 24 | 13 | 64 | 30.27 | WNW | 4 | 0.00 |